Theta_e
321 330 336 336 336 335 335 334 334 335 337 338 341 342 343 344 344 342 342 344 345 346 346 346 346 343 341 342 344 347 348 348 348 348 348 346 346 343 342 342 342 338 341
323 327 333 331 330 330 330 330 329 329 330 332 335 337 339 342 341 344 344 344 345 345 345 345 344 341 342 342 343 345 346 347 346 345 344 344 345 344 342 341 340 339 341
322 324 324 327 327 327 327 326 326 326 326 327 328 329 331 336 338 341 342 343 343 344 344 345 345 344 342 341 342 341 345 345 345 343 341 337 337 343 340 341 344 343 343
321 319 319 325 324 324 324 324 324 323 324 324 325 326 327 329 331 335 339 340 341 342 343 344 344 344 344 344 342 343 344 343 342 340 336 335 335 341 339 340 340 342 341
314 316 318 321 321 322 321 321 320 320 320 321 322 323 323 325 327 329 332 335 340 341 342 344 344 344 345 344 343 342 342 341 339 337 332 332 332 337 338 340 339 341 341
311 314 318 320 319 317 317 316 317 317 317 318 319 320 321 322 323 325 327 329 334 338 341 343 343 344 344 344 342 343 342 340 338 331 328 331 331 339 339 339 341 340 341
308 311 314 317 315 313 313 313 313 314 314 316 317 318 319 320 321 322 323 325 327 331 337 339 340 342 342 342 343 341 341 337 331 326 324 326 332 341 340 340 340 338 339
308 310 310 315 314 312 312 311 311 312 312 314 316 318 318 319 319 320 321 322 323 325 329 335 338 339 340 341 341 340 336 332 325 322 321 326 336 340 341 340 338 338 339
308 307 306 307 311 314 314 312 312 312 312 314 316 316 316 317 317 317 318 319 320 321 323 326 331 336 338 338 339 335 332 328 320 320 322 325 337 340 339 338 337 339 340
305 305 302 303 305 304 304 314 315 314 313 315 315 316 316 316 316 316 316 317 319 319 320 321 325 332 335 336 334 331 327 326 320 320 321 322 337 338 340 337 338 339 339
305 303 302 302 302 303 303 305 311 313 315 317 316 316 314 311 310 311 314 315 316 317 318 320 325 330 330 329 331 328 326 325 320 320 321 329 337 338 338 337 337 337 337
303 303 302 301 301 301 304 303 304 305 305 306 307 308 310 310 311 313 312 315 316 317 317 317 318 323 326 328 328 327 326 324 319 320 324 331 337 337 338 337 338 337 337
303 303 302 302 300 300 301 302 302 303 303 305 306 307 312 310 310 311 310 311 311 311 310 312 311 314 325 328 326 325 323 321 320 326 327 331 336 336 337 338 337 336 336
301 301 302 301 300 299 300 300 301 302 305 304 306 309 310 310 309 309 309 310 308 310 311 313 313 317 321 321 321 321 322 321 321 323 324 326 332 336 337 337 336 336 336
300 301 300 299 299 301 300 300 302 303 304 305 306 310 311 309 308 309 308 310 309 310 310 317 319 321 319 320 321 321 320 320 321 322 322 322 329 334 335 337 337 337 336
302 300 299 299 299 301 300 302 303 304 305 307 309 309 310 310 309 309 309 310 309 309 308 317 320 318 319 319 319 320 320 321 322 323 323 322 326 331 334 336 336 336 335
302 299 299 299 300 301 303 304 304 305 309 309 309 310 311 310 309 309 309 308 309 310 312 319 319 318 317 318 317 319 319 321 321 321 322 323 324 323 329 334 334 334 333
300 299 299 302 301 303 303 304 305 307 309 309 309 309 310 310 309 308 308 308 309 310 315 318 317 315 314 315 316 317 318 319 318 319 320 321 322 324 325 329 330 332 331
299 298 298 300 302 303 304 304 304 304 305 308 310 310 310 309 309 308 308 308 309 312 313 316 315 313 311 312 313 314 316 314 313 314 317 319 320 322 323 324 323 324 328
297 297 298 301 302 303 303 302 302 303 303 308 309 308 307 307 308 308 308 308 308 310 313 314 312 312 311 308 305 303 304 305 305 307 308 312 314 316 319 321 320 319 322
296 297 299 302 302 301 300 299 299 298 301 306 307 308 309 306 306 308 308 307 308 309 312 313 311 309 306 307 303 301 300 300 299 301 305 306 307 310 311 312 313 317 318
295 297 301 302 302 302 301 301 302 300 303 306 307 305 306 305 308 306 306 306 307 311 314 310 309 307 307 308 305 303 298 298 298 298 301 303 304 306 307 306 307 306 307
294 298 301 301 302 302 302 301 302 303 308 308 306 305 305 305 306 306 306 309 310 312 312 311 310 308 306 307 309 303 298 294 294 296 296 298 301 301 302 302 302 302 302
294 299 301 302 302 302 301 300 301 304 305 308 306 306 305 306 308 307 308 313 316 315 312 311 311 309 309 305 310 307 305 299 293 291 294 294 296 298 299 300 300 300 298
299 299 299 301 301 301 301 301 304 305 306 305 306 304 305 306 310 310 310 315 316 314 313 312 311 311 310 309 307 302 302 300 298 293 289 291 293 294 297 298 298 297 296
298 298 299 300 300 300 300 300 301 301 304 303 304 305 306 308 307 312 315 316 316 315 312 312 312 312 311 311 307 305 303 301 298 294 292 291 290 291 293 293 295 294 293
Wind_Speed
2 6 11 10 11 11 11 10 10 9 7 5 7 6 7 7 4 4 3 3 6 8 10 11 13 13 13 12 12 11 10 11 13 15 16 14 12 13 13 11 9 7 11
10 7 10 10 10 9 9 9 8 8 8 7 7 8 7 7 6 8 7 6 8 10 11 13 12 13 10 8 7 9 8 8 10 11 13 13 11 12 12 8 5 9 12
11 9 8 9 8 8 8 8 7 7 7 6 6 7 7 9 9 8 8 8 9 12 14 15 16 16 13 10 10 9 10 10 11 12 12 6 5 12 11 8 12 12 13
12 9 7 8 7 7 8 7 8 7 7 7 7 7 7 8 8 10 9 9 9 12 14 16 17 18 17 16 14 12 12 11 11 13 8 7 7 12 12 12 12 12 12
11 9 8 9 8 8 9 9 8 8 7 7 7 8 8 9 9 9 10 11 11 12 17 18 18 19 18 16 17 16 14 13 12 10 6 7 5 10 13 11 11 11 9
9 8 10 10 8 9 8 8 7 7 6 7 7 8 9 10 10 11 12 12 14 13 15 18 19 17 16 17 17 16 15 13 12 6 6 6 8 13 14 13 14 9 10
8 7 7 11 8 7 6 6 6 6 7 8 9 10 10 11 12 12 13 13 14 16 15 15 19 17 16 16 18 18 15 13 8 6 5 4 7 15 15 12 14 12 10
8 8 7 9 8 5 4 3 3 5 6 9 10 12 13 13 14 15 15 15 16 16 17 17 14 18 16 16 18 19 16 10 7 6 4 3 14 16 17 15 14 12 11
8 7 6 6 6 5 4 3 3 5 7 9 10 11 12 13 13 15 15 16 17 17 17 17 17 14 18 18 18 20 14 7 6 4 4 3 13 17 17 16 13 12 15
7 7 6 6 5 4 2 3 6 5 8 10 11 11 11 12 12 13 15 13 14 14 15 15 16 14 11 18 20 15 14 12 5 5 4 4 12 18 17 14 13 15 17
4 7 7 5 4 4 2 3 2 5 9 9 8 8 6 3 5 6 6 10 8 11 11 13 14 9 4 11 17 17 12 4 3 4 3 8 12 14 16 15 15 15 17
6 6 6 6 5 4 2 3 3 5 4 4 4 4 3 4 4 7 6 10 13 13 14 16 15 14 5 3 9 15 7 3 2 4 4 11 13 15 17 17 18 17 17
6 4 6 6 5 4 2 1 2 2 3 3 5 4 4 4 2 3 2 3 3 5 4 7 6 4 4 7 8 9 7 9 5 3 5 12 12 17 19 20 19 18 17
8 8 7 6 5 3 1 2 3 2 3 3 3 4 3 2 2 2 2 5 3 3 5 4 3 4 9 12 7 13 5 1 3 4 5 10 11 17 20 22 21 20 20
7 7 7 6 5 2 2 2 3 3 3 3 3 3 2 2 2 2 3 3 4 3 3 4 2 7 10 14 14 12 6 8 7 5 3 7 12 16 21 22 22 21 22
8 8 7 6 4 2 2 3 3 3 4 3 3 3 4 2 2 2 2 3 4 4 5 3 4 9 9 12 13 12 9 5 6 7 4 4 10 17 19 22 22 23 24
6 8 7 5 3 2 2 3 3 3 4 3 2 3 1 0 2 3 1 4 4 3 5 3 9 11 10 11 14 13 9 6 9 7 6 5 4 9 16 19 22 24 24
9 8 7 4 3 3 2 2 3 4 3 2 2 3 3 1 2 2 2 3 4 3 3 4 9 10 9 11 10 9 8 9 6 8 8 6 5 4 8 20 22 23 25
9 8 6 3 3 3 3 3 3 4 3 3 3 3 2 3 2 2 1 3 3 3 2 9 9 13 9 9 9 8 7 10 8 7 11 10 9 8 6 11 17 20 23
9 8 6 3 4 3 3 3 2 2 3 3 3 3 2 1 2 2 2 3 2 2 3 9 13 9 10 11 12 10 10 10 8 9 9 9 11 12 9 11 12 11 20
8 8 5 4 3 2 2 1 2 2 3 2 3 1 2 1 2 3 2 1 2 2 2 12 13 14 10 11 11 11 11 12 12 9 7 8 11 11 11 10 7 7 9
9 7 6 4 4 3 2 1 3 1 3 3 2 4 4 2 3 2 3 1 2 2 12 13 14 11 8 4 6 8 5 5 8 10 7 8 10 9 10 10 11 10 8
8 8 6 4 5 4 2 2 2 1 1 3 2 1 1 2 2 5 3 1 3 3 8 10 12 16 10 5 7 5 5 4 3 6 9 8 9 8 8 9 10 9 8
7 7 7 6 6 4 3 1 1 2 1 1 2 1 1 3 2 3 5 2 9 8 9 8 8 9 7 11 2 6 7 6 5 4 5 7 8 9 7 6 7 8 7
8 7 6 6 6 5 3 3 0 3 1 1 2 3 1 1 2 2 4 5 10 8 9 10 7 9 6 6 3 5 8 7 6 5 3 3 5 7 5 5 5 6 6
7 7 6 7 5 5 4 3 2 4 4 3 3 3 1 2 2 2 1 6 7 8 8 8 7 8 7 4 5 8 8 5 6 5 5 3 4 2 4 4 6 4 4
Wind_Direction
171 133 117 107 100 93 86 79 68 60 52 43 28 14 18 12 317 276 272 228 199 187 178 179 177 169 168 168 170 173 168 152 138 133 126 126 135 134 133 130 112 112 109
138 120 111 105 98 93 86 77 65 53 42 35 20 360 355 347 333 345 267 237 218 205 196 196 185 177 173 175 179 173 163 144 129 121 122 134 146 146 143 141 148 131 124
132 126 109 107 100 91 79 69 55 43 27 13 3 351 342 341 327 321 317 274 236 228 221 218 203 198 203 206 198 199 183 169 146 138 131 126 158 154 142 134 139 132 119
134 120 112 107 95 83 77 68 54 41 23 10 360 347 337 332 325 313 314 299 272 245 233 227 224 221 220 205 202 198 191 188 167 155 142 152 170 164 147 143 140 129 124
113 122 111 107 96 83 73 62 51 36 19 4 355 343 335 322 309 301 297 294 293 257 237 232 226 222 224 226 210 205 190 184 181 165 161 166 158 170 159 155 140 131 132
110 111 119 111 98 83 71 62 50 33 13 357 340 330 323 314 308 301 293 288 286 299 258 244 235 230 226 218 205 195 187 178 171 171 171 177 166 167 156 154 132 123 144
124 126 122 119 108 96 83 63 40 14 352 339 327 316 308 304 301 295 290 287 283 283 285 265 251 243 231 216 209 201 181 170 162 182 171 194 163 161 160 147 136 136 143
135 140 140 137 135 129 108 85 34 347 330 327 320 313 309 304 302 297 292 286 283 281 281 280 270 250 241 221 203 185 172 177 156 170 169 164 162 150 144 141 142 145 158
135 129 145 150 163 168 165 189 249 302 316 317 314 308 306 301 301 299 290 284 281 280 280 277 280 268 248 223 201 192 147 185 159 172 178 165 158 152 147 139 138 139 140
140 142 148 152 154 139 135 280 298 278 288 289 287 287 284 285 285 293 289 281 282 283 275 272 271 281 286 231 206 141 165 182 175 170 179 176 169 165 144 141 135 138 137
160 158 151 154 120 109 74 28 32 293 296 290 279 282 288 271 265 272 296 305 290 286 288 283 280 291 286 266 187 157 157 192 176 184 175 183 172 156 141 143 140 138 136
194 188 163 140 122 90 19 20 329 311 298 293 302 296 284 293 318 324 306 309 310 299 273 265 261 265 304 188 161 162 175 173 234 197 163 171 168 165 155 148 150 143 140
202 156 157 137 115 88 31 321 310 304 298 296 290 290 293 316 302 283 294 300 304 311 298 265 259 232 223 173 163 159 173 162 194 169 141 158 165 169 163 151 147 147 140
144 153 154 128 105 78 76 312 290 294 292 303 293 313 330 313 318 320 349 321 307 299 305 277 228 179 113 101 119 91 353 135 148 107 110 133 156 168 165 153 148 139 135
152 137 127 113 96 86 11 313 304 289 288 272 296 309 333 319 302 320 309 317 302 309 310 302 129 124 120 116 111 109 58 349 97 100 96 122 129 155 158 149 141 139 134
140 125 129 105 102 57 341 315 293 295 279 272 297 291 304 302 296 278 314 311 302 308 316 330 150 125 120 117 112 111 94 3 110 76 87 88 129 146 146 144 142 139 133
145 129 117 114 105 34 345 312 310 288 289 318 327 334 138 215 280 294 294 304 300 318 312 300 123 116 118 108 105 98 89 19 27 72 55 66 75 134 142 141 137 134 125
127 121 116 104 63 49 356 346 336 304 326 334 293 274 246 267 273 282 283 293 310 321 332 140 127 115 115 115 110 116 117 82 39 46 65 63 58 76 122 138 130 125 123
126 126 119 107 78 62 39 23 357 348 359 326 316 291 257 266 231 226 286 292 315 321 335 127 124 115 114 106 100 78 90 85 57 48 59 66 68 78 84 103 109 112 112
123 119 124 113 99 70 69 18 337 330 350 310 318 289 28 282 146 172 233 268 331 44 345 119 111 111 108 106 88 72 66 63 58 44 49 63 70 72 77 106 103 99 104
119 121 124 117 109 94 47 349 299 324 312 300 290 296 63 166 194 191 222 315 352 17 98 124 120 111 109 118 107 86 60 56 51 36 40 61 69 73 71 71 71 92 105
135 134 124 119 115 107 100 222 234 224 277 284 300 94 101 221 223 176 132 93 61 284 136 137 132 123 114 147 121 111 107 59 44 31 33 54 65 73 69 63 69 67 64
139 143 138 144 128 113 113 267 295 22 309 22 10 86 113 249 200 133 150 180 150 239 127 140 138 146 141 113 164 112 131 114 131 12 31 37 56 66 66 65 69 69 61
149 141 141 150 135 125 125 152 23 79 17 310 280 132 118 223 211 175 144 157 123 137 132 130 135 150 128 144 80 50 102 131 98 99 23 23 43 55 57 61 65 69 56
143 146 156 153 137 139 146 129 330 87 25 321 354 95 108 65 162 220 126 117 130 133 134 132 133 138 134 142 116 122 91 84 81 113 105 48 44 28 31 62 69 73 62
144 145 160 155 159 153 146 143 182 94 50 47 31 49 65 119 155 230 126 118 126 128 137 141 131 124 146 97 115 139 143 143 161 133 120 100 97 38 34 29 74 69 80